STARLINK-1525, 46066

Orbit data source: Space-Track

STARLINK-1525, 46066 is a payload satellite owned by SpaceX/Seattle (US) in LEO that was launched on Fri, 07 Aug 2020 UTC via an FALCON 9 launch vehicle from the Air Force Eastern Test Range (AFETR). Payload-class satellites include a variety of spacecraft equipped with specific instruments for various scientific and technological missions. These include communications satellites like Starlink; space stations such as the ISS; scientific satellites like the Hubble; Earth observation satellites from companies like Planet Labs, Umbra, and HawkEye 360; GPS; miniature CubeSats for education and research; and military/defense satellites.

Loading next visibility...
Identifier
46066, 2020-055AR
Orbit
LEO
Country
Flag of USUS
Related business
Manufacturer
SpaceX/Seattle
Mission
Non-operational Commercial Communications
Bus & Motor
STARLINK, Unknown motor
Mass
260 kg wet, ~248 kg dry
Launch date (UTC)
2020-08-07 (6 years ago)
Launch vehicle
FALCON 9
Launch site
Air Force Eastern Test Range (AFETR)
Object type
Payload
Rocket body
Debris
Shape & HBR
Box + 1 Pan, 10.1 m
Radar Cross Section
13.562 m², Large (>1 m²)

Expand to show TLE details & history
Last TLE update: 9 hours ago

TLE from 9 hours ago
0 STARLINK-1525
1 46066U 20055AR  26125.64708995  .00072611  00000-0  20308-2 0  9990
2 46066  53.0520 191.2732 0007013   8.8192 351.2932 15.36012615318022
Epoch: 2026-05-05T15:31Z
TLE epoch observation values (Epoch: 2026-05-05T15:31:48.571Z)
Latitude
-0.00002°
Longitude
94.80187°
Altitude
454.066 km
Speed
7.644 km/s
True Right ascension
12h 45m 05s
True Declination
0° 00' 00"
Sunlit
Object was in full shadow at epoch
Visualization orbit readout
Latitude
Unknown
Longitude
Unknown
Altitude
Unknown
Speed
Unknown
Apparent Right ascension
Unknown
Apparent Declination
Unknown
Sunlit
N/A
Visualization observer readout
Local Sidereal Time
08:06:42
Azimuth
Unknown
Elevation
Unknown
Doppler factor
Unknown
Orbital elements
Apogee altitude
462.983 km
Perigee altitude
453.395 km
Semi-major axis
6,836.326 km
Eccentricity
0.0007
Inclination
53.052°
RAAN
191.2732°
Arg. of periapsis
8.8192°
True anomaly
351.28102°
Mean anomaly
351.2932°
Eccentric anomaly
351.28711°
Mean motion
3.8398 °/min
Orbital period
93.75 mins
BSTAR
0.0020308
Loading maneuver chart data...
Computing Atmospheric mass density...
Loading historical data...
Loading historical data...
Loading historical data...
Loading historical data...
Loading historical data...
Loading historical data...
Loading historical data...

Documentation

Showing up to 5 results
|